Location: Cerda�ola
(41.4919°N, 2.1403°E)
Time: 01:25:52
(UTC+00:00)

STARLINK-1244 - Pass Details

Date: 29 March 2020
Orbit: 549 x 550 km, 53.0° (Epoch: 27 May)

Event Time Altitude Azimuth Distance (km) Brightness Sun altitude
Rises 19:13:51 0° 241° (WSW) 2,708 7.9 -11.8°
Reaches altitude 10° 19:16:06 10° 245° (WSW) 1,818 7.0 -12.2°
Maximum altitude 19:20:11 60° 325° (NW) 632 4.1 -13.0°
Drops below altitude 10° 19:24:18 10° 47° (NE) 1,827 6.0 -13.7°
Enters shadow 19:25:19 - 49° (NE) 2,225 6.4 -13.9°
